www.pogodaiklimat.ru

Погода и климат >> Архив погоды >> Мексика >> Фелипе-Каррильо-Пуэрто


ПОГОДА в Фелипе-Каррильо-Пуэрто

  • Прогноз погоды в Фелипе-Каррильо-Пуэрто
  • Монитор погоды в Фелипе-Каррильо-Пуэрто

АРХИВ ПОГОДЫ в Фелипе-Каррильо-Пуэрто

Время (UTC), дата Ветер
(напр.,м/с)
 
Видим.   Явления Облачность Т
(С)
Тd
(С)
f
(%)
Тe
(С)
Тes
(С)
Комфортность P
(гПа)
Po
(гПа)
Тmin
(С)
Tmax
(С)
R
(мм)
R24
(мм)
S
(см)
12 13.06 В 1 10 км 3/3 240 м
[Cu med, cong]
+25.6 +25.0 96 +36 +37 очень
душно
1013.6 1012.4 +23.5 +36.0
15 13.06 В 1 10 км 3/3 240 м
[Cu med, cong]
+31.6 +25.4 70 +46 +57 опасность
перегрева
1014.5 1013.4
18 13.06 В 1 10 км 5/5 240 м
[Cu med, cong]
+33.2 +25.6 64 +48 +61 опасность
перегрева
1014.3 1013.2 +23.5 +33.8
21 13.06 В 2 10 км 8/5 240 м
[Cu med, cong As op]
+31.6 +24.2 65 +44 +47 опасность
перегрева
1013.6 1012.4
00 14.06 В 1 10 км 8/5 240 м
[Cu med, cong Ac As]
+30.0 +23.9 70 +41 +41 опасность
перегрева
1014.4 1013.2 +23.5 +34.0
12 14.06 штиль 0 10 км 4/3 240 м
[Cu med, cong Ac und]
+26.0 +24.6 92 +37 +37 очень
душно
1015.5 1014.4 +24.2 +34.0
15 14.06 В 2 10 км 5/4 240 м
[Cu med, cong Ac und]
+31.4 +24.9 68 +45 +51 опасность
перегрева
1016.6 1015.5
18 14.06 В 1 10 км 4/4 240 м
[Cu med, cong]
+33.6 +23.5 56 +45 +60 опасность
перегрева
1015.7 1014.6 +24.2 +34.4
21 14.06 ЮВ 1 10 км 4/4 240 м
[Cu med, cong]
+34.8 +22.3 48 +44 +52 опасность
перегрева
1013.9 1012.7
00 15.06 В 1 10 км 3/3 240 м
[Cu med, cong]
+30.8 +24.8 70 +44 +44 опасность
перегрева
1014.0 1012.9 +24.2 +35.0
12 15.06 штиль 0 10 км 3/3 240 м
[Cu med, cong]
+25.4 +24.5 95 +36 +36 очень
душно
1015.7 1014.5 +23.4 +35.0
15 15.06 В 1 10 км 3/3 240 м
[Cu med, cong]
+31.2 +25.6 72 +46 +56 опасность
перегрева
1016.0 1014.9
18 15.06 В 2 10 км 3/3 240 м
[Cu med, cong]
+34.6 +24.7 57 +48 +63 опасность
перегрева
1014.9 1013.7 +23.4 +35.6
12 16.06 В 1 10 км 3/1 240 м
[Cu med, cong Ac und]
+26.8 +24.8 89 +38 +39 очень
душно
1013.3 1012.2 +25.0 +35.6
15 16.06 ЮВ 1 10 км 4/4 240 м
[Cu med, cong]
+31.6 +25.1 69 +46 +55 опасность
перегрева
1013.8 1012.7
18 16.06 В 3 10 км 3/3 240 м
[Cu med, cong]
+35.0 +23.2 51 +46 +58 опасность
перегрева
1012.8 1011.7 +25.0 +36.0
12 17.06 В 1 10 км 3/3 240 м
[Cu med, cong]
+26.4 +24.4 89 +37 +38 очень
душно
1012.2 1011.0 +24.5 +36.0
15 17.06 В 1 10 км 3/3 240 м
[Cu med, cong]
+31.8 +24.4 65 +44 +55 опасность
перегрева
1013.0 1011.9
18 17.06 В 1 10 км 3/3 240 м
[Cu med, cong]
+32.7 +24.0 60 +44 +63 опасность
перегрева
1011.9 1010.8 +24.5 +33.5
12 18.06 штиль 0 10 км 1/1 240 м
[Cu med, cong]
+27.0 +25.9 94 +40 +41 очень
душно
1013.1 1011.9 +24.0 +33.5
15 18.06 В 1 10 км 3/3 240 м
[Cu med, cong]
+32.8 +23.6 59 +44 +55 опасность
перегрева
1013.7 1012.6
18 18.06 В 1 10 км 3/3 240 м
[Cu med, cong]
+35.6 +23.3 49 +46 +64 опасность
перегрева
1013.6 1012.5 +24.0 +36.2
21 18.06 В 1 10 км 3/3 240 м
[Cu med, cong]
+36.0 +23.1 47 +46 +55 опасность
перегрева
1012.4 1011.3
00 19.06 ЮВ 2 10 км 1/1 240 м
[Cu med, cong]
+32.6 +24.6 63 +46 +46 опасность
перегрева
1013.1 1012.0 +24.0 +37.4
12 19.06 штиль 0 10 км 1/1 240 м
[Cu med, cong]
+27.0 +25.3 90 +39 +40 очень
душно
1012.8 1011.7 +25.0 +37.4
15 19.06 В 1 10 км 3/3 240 м
[Cu med, cong]
+31.4 +25.2 70 +45 +56 опасность
перегрева
1013.1 1012.0
18 19.06 В 1 10 км 3/3 240 м
[Cu med, cong]
+35.8 +24.5 52 +48 +66 опасность
перегрева
1012.4 1011.3 +25.0 +36.3
21 19.06 Ю 5 10 км 3/3 240 м
[Cu med, cong]
+35.2 +25.4 57 +50 +54 опасность
перегрева
1012.1 1010.9
00 20.06 В 1 10 км 1/1 240 м
[Cu med, cong]
+32.2 +24.8 65 +45 +46 опасность
перегрева
1012.0 1010.8 +25.0 +37.0

 

Местоположение метеостанции Фелипе-Каррильо-Пуэрто (Мексика): широта 19.70 долгота -87.90 высота над уровнем моря 12 м.

В архиве по умолчанию представлена погода в Фелипе-Каррильо-Пуэрто за последнюю неделю. Архивные данные за месяц целиком и за предыдущие месяцы, начиная с января 2011 года, Вы можете получить, выбрав интересующий диапазон дат из раскрывающегося списка и нажав кнопку "Ввод!".


*Определитесь, кто Вы:
робот инопланетянин человек

Внимание! Время в таблицах - всемирное. Для получения местного времени необходимо прибавить поправку, которая равна -6 ч.

Смотрите также архив погоды в соседних городах и на ближайших метеорологических станциях:

Погода в Вальядолиде (Мексика) (113 км)
Погода в Четумале (Мексика) (142 км)
Погода в Мериде (Мексика) (231 км)
Погода в Мериде 2 (Мексика) (237 км)
Погода в Белизе (Белиз) (245 км)
Погода в Прогресо (Мексика) (255 км)
Погода в Кампече (Мексика) (278 км)
Погода во Флоресе (Гватемала) (373 км)
Погода в Кабо-Сан-Антонио (Куба) (390 км)
Погода на Роатане (Гондурас) (404 км)

Пояснения к столбцам:

Ветер - указаны скорость ветра в м/с - средняя за 10 мин, порывы в срок и между сроками (в фигурных скобках) и направление, откуда дует ветер: С - северный, СВ - северо-восточный, В - восточный, ЮВ - юго-восточный, Ю - южный, ЮЗ - юго-западный, З - западный, СЗ - северо-западный.
Видимость - горизонтальная дальность видимости в метрах или километрах. При видимости от 1 до 10 км при отсутствии осадков обычно наблюдается дымка, при ухудшении видимости до 1 км и менее - туман. В сухую погоду видимость может ухудшаться дымом, пылью или мглою.
Явления - указаны атмосферные явления, наблюдавшиеся в срок или в последний час перед сроком; фигурными скобками обозначены явления, наблюдавшиеся между сроками (за 1-3 часа до срока); квадратными скобками обозначены град или гололедные отложения с указанием их диаметра в мм.
Облачность - указаны через наклонную черту общая и нижняя облачность в баллах и высота нижней границы облаков в метрах; квадратными скобками обозначены формы облаков: Ci - перистые, Cs - перисто-слоистые, Cc - перисто-кучевые, Ac - высококучевые, As - высокослоистые, Sc - слоисто-кучевые, Ns - слоисто-дождевые, Cu - кучевые, Cb - кучево-дождевые. Подробнее классификацию облаков см. в Атласе облаков (PDF).
T - Температура воздуха - температура, измеренная на высоте 2 м над землей.
Td - Температура точки росы - температура, при понижении до которой содержащийся в воздухе водяной пар достигнет насыщения.
f - Относительная влажность воздуха - влажноcть воздуха, измеренная на высоте 2 м над землей.
Te - Эффективная температура - температура, которую ощущает одетый по сезону человек в тени. Характеристика душности погоды. При расчете учитывается влияние влажности воздуха и скорости ветра на теплоощущения человека.
Tes - Эффективная температура на солнце - температура, которую ощущает человек, с поправкой на солнечный нагрев. Характеристика знойности погоды. Зависит от высоты солнца над горизонтом, облачности и скорости ветра. Ночью, в пасмурную погоду, а также при ветре 12 м/с и более поправка равна нулю.
P - Атмосферное давление - приведенное к уровню моря атмосферное давление.
Po - Атмосферное давление - измеренное на уровне метеостанции атмосферное давление.
Tmin - Минимальная температура - минимум температуры воздуха на высоте 2 м над землей.
Tmax - Максимальная температура - максимум температуры воздуха на высоте 2 м над землей.
R - Количество осадков - Количество выпавших осадков за период времени, мм. При наведении курсора мыши на число - период времени, за который выпало указанное количество осадков.
R24 - Количество осадков - Количество выпавших осадков за 24 часа, мм.
S - Снежный покров - Высота снежного покрова, см. При наведении курсора мыши на число - состояние снежного покрова и степень покрытия местности в баллах.